(423) Diotima
ephemeris date magn radius delta ra dec elong phase
Today17 Sep 202512.83.136 AU2.576 AU03h52m+13°40'115.0°16.9°
Opposition14 Nov 202511.73.149 AU2.162 AU03h23m+13°29'175.1°1.6°
(423) Diotima - 2025-09-17
astro.vanbuitenen.nl


 
-1 year
-1 month
-1 day
Now
+1 day
+1 month
+1 year

The interactive orbit chart above shows the body's path through the solar system and its position at the given date. Green and blue lines are shown perpendicular to the ecliptic plane: Green if the path is above the ecliptic plane, blue if it is below. (Left-click and drag to rotate the view; Right-click and drag to move the view; Use scroll wheel to zoom in our out.)

The orbital elements of Diotima are:

            e (Eccentricity)                : 0.0340899
            a (Semimajor axis)              : 3.0663235
            i (Inclination)                 : 11.24302
            Ω (Longitude of ascending node) : 69.34785
            ω (Argument of perihelion)      : 199.03186
            M (Mean anomaly)                : 105.40310
            Epoch                           : 2025 May 05

            L (Longitude of perihelion)     : 88.04006
            B (Latitude of perihelion)      : -3.64526
            P (Orbital period in years)     : 5.37            
        

The light curve chart below shows the estimated development of the minor planet's magnitude.


The all-sky chart below shows the path of the minor planet over the same period as the light curve. The current position is marked yellow.





The following chart shows the path of the minor planet in the next few days. The field of view is optimized for (~10x50) binoculars and finderscopes. A more printer-friendly version of the same chart can be found below.




Ephemerides:
Date       Time       RA (2000)    DEC (2000)    delta   radius  elong  phase   PA    magn
2025-09-17 00:00 UT   03 52 16.1   +13 40 52     2.576    3.136  115.0   16.9   261   12.8 
2025-09-17 05:59 UT   03 52 17.8   +13 41 03     2.573    3.136  115.2   16.9   261   12.8 
2025-09-18 00:00 UT   03 52 22.7   +13 41 35     2.564    3.136  115.9   16.8   261   12.8 
2025-09-19 00:00 UT   03 52 28.0   +13 42 15     2.551    3.136  116.9   16.6   261   12.8 
2025-09-20 00:00 UT   03 52 31.9   +13 42 53     2.539    3.137  117.8   16.5   261   12.8 
2025-09-21 00:00 UT   03 52 34.5   +13 43 27     2.527    3.137  118.8   16.3   261   12.8 
2025-09-22 00:00 UT   03 52 35.7   +13 43 59     2.515    3.137  119.7   16.1   261   12.7 
2025-09-23 00:00 UT   03 52 35.6   +13 44 28     2.504    3.137  120.7   16.0   262   12.7 
2025-09-24 00:00 UT   03 52 34.0   +13 44 55     2.492    3.137  121.7   15.8   262   12.7 
2025-09-25 00:00 UT   03 52 31.1   +13 45 18     2.481    3.138  122.7   15.6   262   12.7 
2025-09-26 00:00 UT   03 52 26.8   +13 45 39     2.469    3.138  123.7   15.4   262   12.7 
2025-09-27 00:00 UT   03 52 21.1   +13 45 58     2.458    3.138  124.7   15.2   262   12.7 
2025-09-28 00:00 UT   03 52 14.0   +13 46 14     2.447    3.138  125.7   15.0   262   12.6 
2025-09-29 00:00 UT   03 52 05.5   +13 46 28     2.436    3.139  126.7   14.8   262   12.6 
2025-09-30 00:00 UT   03 51 55.6   +13 46 39     2.425    3.139  127.7   14.6   263   12.6 
2025-10-01 00:00 UT   03 51 44.3   +13 46 48     2.414    3.139  128.7   14.4   263   12.6 
2025-10-02 00:00 UT   03 51 31.6   +13 46 54     2.404    3.139  129.7   14.2   263   12.6 
2025-10-03 00:00 UT   03 51 17.5   +13 46 59     2.394    3.140  130.7   14.0   263   12.6 
2025-10-04 00:00 UT   03 51 02.1   +13 47 01     2.383    3.140  131.8   13.7   263   12.5 
2025-10-05 00:00 UT   03 50 45.2   +13 47 00     2.373    3.140  132.8   13.5   263   12.5 
2025-10-06 00:00 UT   03 50 27.0   +13 46 58     2.364    3.140  133.9   13.3   264   12.5 
2025-10-07 00:00 UT   03 50 07.4   +13 46 54     2.354    3.141  134.9   13.0   264   12.5 
2025-10-08 00:00 UT   03 49 46.4   +13 46 47     2.344    3.141  136.0   12.8   264   12.5 
2025-10-09 00:00 UT   03 49 24.0   +13 46 39     2.335    3.141  137.1   12.5   264   12.5 
2025-10-10 00:00 UT   03 49 00.3   +13 46 28     2.326    3.141  138.1   12.3   264   12.4 
2025-10-11 00:00 UT   03 48 35.3   +13 46 16     2.317    3.141  139.2   12.0   265   12.4 
2025-10-12 00:00 UT   03 48 08.9   +13 46 01     2.309    3.142  140.3   11.7   265   12.4 
2025-10-13 00:00 UT   03 47 41.2   +13 45 45     2.300    3.142  141.4   11.4   265   12.4 
2025-10-14 00:00 UT   03 47 12.1   +13 45 27     2.292    3.142  142.5   11.2   265   12.4 
2025-10-15 00:00 UT   03 46 41.8   +13 45 07     2.284    3.142  143.6   10.9   266   12.3 
2025-10-16 00:00 UT   03 46 10.2   +13 44 46     2.276    3.143  144.7   10.6   266   12.3 
2025-10-17 00:00 UT   03 45 37.4   +13 44 23     2.268    3.143  145.8   10.3   266   12.3 


    Terminology:
            
    delta:  distance between minor planet and earth in AU
    radius: distance between minor planet and sun in AU
    magn:   magnitude (brightness) estimate    
    ra:     right ascension in hours (24h = 360deg)
    dec:    declination in degrees
    elong:  elongation in degrees (angle sun-earth-minor planet)    
    phase:  phase angle in degrees (angle sun-minor planet-earth)        
    AU:     Astronomical Unit (mean distance between earth and sun: 149597870.7 km
    

Orbital elements provided by the MPC (Minor Planet Center).
Calculations by a modified version of AAPlus, a C# implementation of the AA+ project by PJ Naughter from the algorithms presented in the book "Astronomical Algorithms" by Jean Meeus.
NGC2000 dso catalog and star labels from VizieR as provided by the Strasbourg astronomical Data Center.
Tycho2 catalog from the ESO archive.